Montevideo, MN

4:37 AM CST on January 19, 2018 (GMT -0600)
Montevideo-Chippewa County

Weather History for KMVE - May, 2013

Change the Weather History Date:

Tuesday, May 7, 2013

  Actual Average Record
Temperature  
Mean Temperature 60 °F -  
Max Temperature 77 °F 69 °F 91 °F (1990)
Min Temperature 42 °F 43 °F 25 °F (1976)
Degree Days  
Heating Degree Days 6    
Growing Degree Days 10 (Base 50)    
Moisture  
Dew Point 43 °F    
Average Humidity 55    
Maximum Humidity 100    
Minimum Humidity 26    
Precipitation  
Precipitation 0.00 in - - ()
Sea Level Pressure  
Sea Level Pressure 30.01 in    
Wind  
Wind Speed 4 mph (SW)    
Max Wind Speed 10 mph    
Max Gust Speed 16 mph    
Visibility 10 miles    
Events      
Averages and records for this station are not official NWS values.
T = Trace of Precipitation, MM = Missing Value Source: NWS Daily Summary

Daily Weather History Graph

Daily Weather History Graph

Search for Another Location

Airport or City:

Trip Planner

Search our weather history database for the weather conditions in past years. The results will help you decide how hot, cold, wet, or windy it might be!

Date:

Astronomy

May. 07, 2013 Rise Set
Actual Time 6:03 AM CDT 8:36 PM CDT
Civil Twilight 5:30 AM CDT 9:09 PM CDT
Nautical Twilight 4:48 AM CDT 9:51 PM CDT
Astronomical Twilight 4:01 AM CDT 10:38 PM CDT
Moon 4:44 AM CDT (5/7) 6:32 PM CDT (5/7)
Length of Visible Light 15h 39m
Length of Day
14h 32m
Waning Crescent, 5% of the Moon is Illuminated
May 7
Waning Crescent
May 9
New
May 17
First Quarter
May 24
Full
May 31
Last Quarter

Hourly Weather History & Observations

Time (CDT) Temp. Windchill Dew Point Humidity Pressure Visibility Wind Dir Wind Speed Gust Speed Precip Events Conditions
12:14 AM 55.4 °F - 46.4 °F 72% 30.06 in 10.0 mi WSW 5.8 mph - N/A   Clear
12:34 AM 57.2 °F - 46.4 °F 67% 30.06 in 10.0 mi West 4.6 mph - N/A   Clear
12:54 AM 55.4 °F - 46.4 °F 72% 30.06 in 10.0 mi WSW 6.9 mph - N/A   Clear
1:14 AM 53.6 °F - 46.4 °F 77% 30.06 in 10.0 mi WSW 5.8 mph - N/A   Clear
1:34 AM 51.8 °F - 44.6 °F 76% 30.06 in 10.0 mi WSW 5.8 mph - N/A   Clear
1:54 AM 51.8 °F - 44.6 °F 76% 30.05 in 10.0 mi WSW 4.6 mph - N/A   Clear
2:14 AM 51.8 °F - 44.6 °F 76% 30.05 in 10.0 mi WSW 3.5 mph - N/A   Clear
2:34 AM 51.8 °F - 44.6 °F 76% 30.05 in 10.0 mi Calm Calm - N/A   Clear
2:54 AM 50.0 °F - 44.6 °F 82% 30.05 in 10.0 mi Calm Calm - N/A   Clear
3:14 AM 48.2 °F - 44.6 °F 87% 30.05 in 10.0 mi Calm Calm - N/A   Clear
3:34 AM 48.2 °F - 44.6 °F 87% 30.04 in 10.0 mi Calm Calm - N/A   Clear
3:54 AM 46.4 °F - 42.8 °F 87% 30.05 in 10.0 mi Calm Calm - N/A   Clear
4:14 AM 46.4 °F 44.3 °F 42.8 °F 87% 30.05 in 10.0 mi West 4.6 mph - N/A   Clear
4:34 AM 44.6 °F - 42.8 °F 93% 30.05 in 10.0 mi Calm Calm - N/A   Clear
4:54 AM 44.6 °F - 42.8 °F 93% 30.05 in 10.0 mi Calm Calm - N/A   Clear
5:14 AM 44.6 °F - 42.8 °F 93% 30.06 in 10.0 mi Calm Calm - N/A   Clear
5:34 AM 44.6 °F - 42.8 °F 93% 30.06 in 10.0 mi Calm Calm - N/A   Clear
5:54 AM 42.8 °F - 42.8 °F 100% 30.06 in 10.0 mi Calm Calm - N/A   Clear
6:14 AM 44.6 °F - 42.8 °F 93% 30.07 in 7.0 mi Calm Calm - N/A   Clear
6:34 AM 42.8 °F - 42.8 °F 100% 30.07 in 7.0 mi Calm Calm - N/A   Clear
6:54 AM 42.8 °F - 42.8 °F 100% 30.07 in 5.0 mi Calm Calm - N/A   Clear
7:14 AM 44.6 °F - 42.8 °F 93% 30.07 in 7.0 mi Calm Calm - N/A   Clear
7:34 AM 46.4 °F - 44.6 °F 93% 30.08 in 10.0 mi Calm Calm - N/A   Clear
7:54 AM 50.0 °F - 46.4 °F 87% 30.07 in 10.0 mi Calm Calm - N/A   Clear
8:14 AM 51.8 °F - 46.4 °F 82% 30.08 in 10.0 mi Calm Calm - N/A   Clear
8:34 AM 53.6 °F - 46.4 °F 77% 30.08 in 10.0 mi SSE 3.5 mph - N/A   Clear
8:54 AM 55.4 °F - 48.2 °F 77% 30.08 in 10.0 mi Calm Calm - N/A   Clear
9:14 AM 57.2 °F - 48.2 °F 72% 30.08 in 10.0 mi South 4.6 mph - N/A   Clear
9:34 AM 60.8 °F - 48.2 °F 63% 30.07 in 10.0 mi Calm Calm - N/A   Clear
9:54 AM 60.8 °F - 48.2 °F 63% 30.07 in 10.0 mi SSW 4.6 mph - N/A   Clear
10:14 AM 62.6 °F - 48.2 °F 59% 30.06 in 10.0 mi South 4.6 mph - N/A   Clear
10:34 AM 62.6 °F - 46.4 °F 55% 30.06 in 10.0 mi SSW 3.5 mph - N/A   Clear
10:54 AM 64.4 °F - 46.4 °F 52% 30.06 in 10.0 mi SSW 8.1 mph - N/A   Clear
11:14 AM 66.2 °F - 44.6 °F 46% 30.05 in 10.0 mi SW 9.2 mph - N/A   Clear
11:34 AM 66.2 °F - 42.8 °F 43% 30.04 in 10.0 mi South 8.1 mph - N/A   Clear
11:54 AM 69.8 °F - 42.8 °F 38% 30.04 in 10.0 mi SW 9.2 mph - N/A   Clear
12:14 PM 69.8 °F - 41.0 °F 35% 30.04 in 10.0 mi SW 6.9 mph - N/A   Clear
12:34 PM 69.8 °F - 41.0 °F 35% 30.03 in 10.0 mi SW 5.8 mph - N/A   Clear
12:54 PM 71.6 °F - 41.0 °F 33% 30.02 in 10.0 mi South 8.1 mph - N/A   Clear
1:14 PM 71.6 °F - 37.4 °F 29% 30.02 in 10.0 mi SSW 5.8 mph - N/A   Clear
1:34 PM 73.4 °F - 39.2 °F 29% 30.01 in 10.0 mi West 5.8 mph - N/A   Clear
1:54 PM 73.4 °F - 39.2 °F 29% 30.01 in 10.0 mi SSW 5.8 mph - N/A   Clear
2:14 PM 73.4 °F - 39.2 °F 29% 30.00 in 10.0 mi WNW 5.8 mph - N/A   Clear
2:34 PM 75.2 °F - 41.0 °F 29% 30.00 in 10.0 mi SW 8.1 mph - N/A   Clear
2:54 PM 75.2 °F - 39.2 °F 27% 29.99 in 10.0 mi SW 3.5 mph - N/A   Clear
3:14 PM 75.2 °F - 41.0 °F 29% 29.98 in 10.0 mi SSW 9.2 mph - N/A   Clear
3:34 PM 75.2 °F - 39.2 °F 27% 29.98 in 10.0 mi WNW 5.8 mph - N/A   Clear
3:54 PM 77.0 °F - 39.2 °F 26% 29.97 in 10.0 mi South 3.5 mph - N/A   Scattered Clouds
4:14 PM 75.2 °F - 39.2 °F 27% 29.97 in 10.0 mi South 6.9 mph - N/A   Scattered Clouds
4:34 PM 75.2 °F - 39.2 °F 27% 29.96 in 10.0 mi SW 6.9 mph - N/A   Scattered Clouds
4:54 PM 75.2 °F - 39.2 °F 27% 29.96 in 10.0 mi SW 6.9 mph - N/A   Scattered Clouds
5:14 PM 75.2 °F - 39.2 °F 27% 29.95 in 10.0 mi Calm Calm - N/A   Clear
5:34 PM 75.2 °F - 39.2 °F 27% 29.95 in 10.0 mi WSW 3.5 mph - N/A   Clear
5:54 PM 75.2 °F - 39.2 °F 27% 29.94 in 10.0 mi SSW 3.5 mph - N/A   Scattered Clouds
6:14 PM 77.0 °F - 39.2 °F 26% 29.94 in 10.0 mi SSW 5.8 mph 16.1 mph N/A   Mostly Cloudy
6:34 PM 75.2 °F - 39.2 °F 27% 29.94 in 10.0 mi South 8.1 mph - N/A   Scattered Clouds
6:54 PM 73.4 °F - 39.2 °F 29% 29.94 in 10.0 mi SSW 3.5 mph - N/A   Scattered Clouds
7:14 PM 73.4 °F - 41.0 °F 31% 29.93 in 10.0 mi SSW 4.6 mph - N/A   Clear
7:34 PM 73.4 °F - 42.8 °F 33% 29.93 in 10.0 mi SSW 3.5 mph - N/A   Scattered Clouds
7:54 PM 71.6 °F - 42.8 °F 35% 29.93 in 10.0 mi WSW 5.8 mph - N/A   Scattered Clouds
8:14 PM 71.6 °F - 42.8 °F 35% 29.93 in 10.0 mi Calm Calm - N/A   Scattered Clouds
8:34 PM 71.6 °F - 41.0 °F 33% 29.94 in 10.0 mi Calm Calm - N/A   Scattered Clouds
8:54 PM 71.6 °F - 41.0 °F 33% 29.94 in 10.0 mi Calm Calm - N/A   Clear
9:14 PM 69.8 °F - 42.8 °F 38% 29.94 in 10.0 mi Calm Calm - N/A   Scattered Clouds
9:34 PM 69.8 °F - 42.8 °F 38% 29.95 in 10.0 mi SSW 4.6 mph - N/A   Mostly Cloudy
9:54 PM 69.8 °F - 42.8 °F 38% 29.96 in 10.0 mi SSW 4.6 mph - N/A   Scattered Clouds
10:14 PM 68.0 °F - 42.8 °F 40% 29.96 in 10.0 mi WSW 3.5 mph - N/A   Scattered Clouds
10:34 PM 66.2 °F - 44.6 °F 46% 29.96 in 10.0 mi SW 4.6 mph - N/A   Scattered Clouds
10:54 PM 66.2 °F - 44.6 °F 46% 29.97 in 10.0 mi WSW 9.2 mph - N/A   Mostly Cloudy
11:14 PM 66.2 °F - 46.4 °F 49% 29.98 in 10.0 mi West 10.4 mph - N/A   Scattered Clouds
11:34 PM 66.2 °F - 46.4 °F 49% 29.98 in 10.0 mi West 8.1 mph - N/A   Clear
11:54 PM 66.2 °F - 46.4 °F 49% 29.98 in 10.0 mi West 5.8 mph - N/A   Scattered Clouds